Погода в Колодезной

Россия / Липецкая область     52°25′43″N   38°52′53″E
темп.,
°C
ветер,
м/с
пор.,
м/с
влажн.,
%
обл.,
%
осадки,
мм/ч
давл.,
гПа
погр.,
м
18 июня, пт
пт1800:00+14св410850 0.0 1023177
03:00+13св410870 0.0 1024177
06:00+15всв410874 0.0 1025249
09:00+19всв69720 0.0 1025632
12:00+22в78580 0.0 10251345
15:00+22в67571 0.0 10251589
18:00+21в48690 0.0 1025604
21:00+16в36820 0.0 102692
19 июня, сб
сб1900:00+14в37910 0.0 1026119
03:00+13в36932 0.0 102796
06:00+15в379028 0.0 1027179
09:00+20вюв45755 0.0 1027557
12:00+22вюв45635 0.0 10261123
15:00+23вюв45564 0.0 10251185
18:00+22вюв35690 0.0 1024546
21:00+17вюв33810 0.0 102526
20 июня, вс
вс2000:00+15вюв33860 0.0 102526
03:00+14в22900 0.0 102518
06:00+15в25890 0.0 1025151
09:00+20вюв46700 0.0 1024508
12:00+24вюв45575 0.0 1024995
15:00+25вюв455590 0.0 10221171
18:00+24вюв4770100 0.0 1022411
21:00+19в3484100 0.0 102255
21 июня, пн
пн2100:00+18вюв3689100 0.0 102192
03:00+17в3688100 0.0 102299
06:00+18в498671 0.0 1021200
09:00+22вюв5972100 0.0 1021360
12:00+25вюв5864100 0.0 1021641
15:00+28юв565816 0.0 1020975
18:00+26вюв487180 0.0 1020299
21:00+22вюв488416 0.0 1020123
22 июня, вт
вт2200:00+19вюв35905 0.0 102167
03:00+18вюв35905 0.0 102175
06:00+19в48885 0.0 1021183
09:00+24вюв57715 0.0 1021423
12:00+28вюв56595 0.0 10201031
15:00+29в455669 0.0 10201449
18:00+27в476974 0.0 1020319
21:00+23в47805 0.0 1020101